This is the latest recevied weather packets stored in our database for station/object CA4LJZ-10. If no packets are shown the sender has not sent any weather packets the latest 10 day(s).
| Time | Temp. | Humidity | Pressure | Rain* | Wind** | Luminosity | Snow |
|---|---|---|---|---|---|---|---|
| 1788351027 | 20.56° C | 42% | 956 hPa | - | - | - | - |
| 1788350126 | 20.56° C | 43% | 956 hPa | - | - | - | - |
| 1788349225 | 20.56° C | 44% | 955.6 hPa | - | - | - | - |
| 1788348324 | 20.56° C | 44% | 955.5 hPa | - | - | - | - |
| 1788347423 | 20° C | 46% | 955.2 hPa | - | - | - | - |
| 1788346522 | 20.56° C | 43% | 955 hPa | - | - | - | - |
| 1788345621 | 20° C | 44% | 954.7 hPa | - | - | - | - |
| 1788344720 | 20° C | 46% | 954.7 hPa | - | - | - | - |
| 1788343819 | 20° C | 44% | 954.8 hPa | - | - | - | - |
| 1788342918 | 20° C | 46% | 954.7 hPa | - | - | - | - |
| 1788342017 | 20° C | 45% | 954.6 hPa | - | - | - | - |
| 1788341117 | 21.11° C | 43% | 954.7 hPa | - | - | - | - |
| 1788340216 | 20° C | 46% | 954.8 hPa | - | - | - | - |
| 1788339315 | 20.56° C | 45% | 954.9 hPa | - | - | - | - |
| 1788338414 | 20.56° C | 45% | 954.6 hPa | - | - | - | - |
| 1788337513 | 21.11° C | 43% | 954.5 hPa | - | - | - | - |
| 1788336612 | 20.56° C | 44% | 954.6 hPa | - | - | - | - |
| 1788335711 | 20.56° C | 44% | 954.7 hPa | - | - | - | - |
| 1788334810 | 21.11° C | 43% | 954.6 hPa | - | - | - | - |
| 1788333909 | 21.11° C | 43% | 954.9 hPa | - | - | - | - |
| 1788333009 | 21.67° C | 43% | 954.8 hPa | - | - | - | - |
| 1788332108 | 21.67° C | 42% | 954.5 hPa | - | - | - | - |
| 1788331207 | 21.67° C | 43% | 955.1 hPa | - | - | - | - |
| 1788330305 | 22.78° C | 44% | 955.2 hPa | - | - | - | - |
| 1788329427 | 21.67° C | 43% | 955.3 hPa | - | - | - | - |
* Rain since midnight (hover to see other rain measurements)
** Current wind speed in m/s (hover to see current wind gust speed)